Date String (YYYY-MM-DD hh:mm:ss) UTC,Instrument flags,Ambient pressure (hPa),Sample flow (lpm),Bypass flow (lpm),Sample temperature (°C),Ambient temperature (°C),ASC tube jacket temperature (°C),LED temperature (°C),Box temperature (°C),Sample RH (%),Span deviation,Mass concentration (μg/m³),Mass concentration (μg/m³),Mass concentration (μg/m³)
DateTimeUTC,F1_M11,P_M11,Q1_M11,Q2_M11,T1_M11,T2_M11,T3_M11,T4_M11,T5_M11,U1_M11,ZSPAN_M11,X0_M11,X2_M11,X1_M11
2022-10-07 23:00:00,,0836.7,5.01,0.00,27.1,25.6,00.0,35.9,29.0,22.2,-000.8,0011.93,0008.14,0007.38
2022-10-07 23:01:00,,0836.7,4.99,0.00,27.1,25.6,00.0,35.9,29.0,22.5,-000.8,0011.88,0008.12,0007.39
2022-10-07 23:02:00,,0836.7,5.00,0.00,27.1,25.6,00.0,35.9,29.0,22.5,-000.5,0011.88,0008.10,0007.39
2022-10-07 23:03:00,,0836.6,5.02,0.00,27.1,25.6,00.0,35.9,29.0,22.3,-000.5,0012.04,0008.12,0007.40
2022-10-07 23:04:00,,0836.6,5.00,0.00,27.1,25.6,00.0,35.9,29.0,22.2,-000.6,0012.69,0008.12,0007.41
2022-10-07 23:05:00,,0836.6,5.00,0.00,27.1,25.6,00.0,35.9,29.0,22.2,-000.1,0012.84,0008.15,0007.40
2022-10-07 23:06:00,,0836.6,4.99,0.00,27.1,25.7,00.0,35.8,29.0,22.2,0000.1,0012.81,0008.14,0007.41
2022-10-07 23:07:00,,0836.6,5.02,0.00,27.1,25.7,00.0,35.9,29.0,22.5,-000.1,0013.10,0008.18,0007.42
2022-10-07 23:08:00,,0836.6,4.99,0.00,27.1,25.7,00.0,35.9,29.0,22.7,0000.0,0013.20,0008.21,0007.44
2022-10-07 23:09:00,,0836.6,5.00,0.00,27.1,25.7,00.0,35.9,29.0,22.4,-000.2,0013.12,0008.21,0007.46
2022-10-07 23:10:00,,0836.6,5.00,0.00,27.1,25.7,00.0,35.9,29.0,22.2,-000.2,0013.10,0008.21,0007.49
2022-10-07 23:11:00,,0836.6,5.01,0.00,27.1,25.7,00.0,35.9,29.0,22.1,-000.2,0013.06,0008.25,0007.51
2022-10-07 23:12:00,,0836.6,5.00,0.00,27.1,25.7,00.0,35.9,29.0,22.2,-000.2,0013.02,0008.28,0007.53
2022-10-07 23:13:00,,0836.5,5.02,0.00,27.1,25.7,00.0,35.8,29.0,22.0,-000.5,0013.27,0008.27,0007.56
2022-10-07 23:14:00,,0836.5,4.99,0.00,27.1,25.7,00.0,35.9,29.0,22.0,-000.9,0013.22,0008.28,0007.56
2022-10-07 23:15:00,,0836.5,5.00,0.00,27.1,25.7,00.0,35.9,29.0,22.0,-000.9,0012.83,0008.29,0007.56
2022-10-07 23:16:00,,0836.6,5.01,0.00,27.1,25.7,00.0,35.9,29.0,21.9,-001.2,0012.92,0008.29,0007.57
2022-10-07 23:17:00,,0836.7,5.01,0.00,27.1,25.8,00.0,35.9,29.0,22.2,-001.8,0013.30,0008.28,0007.57
2022-10-07 23:18:00,,0836.7,4.99,0.00,27.1,25.7,00.0,35.9,29.0,22.3,-001.6,0013.29,0008.26,0007.56
2022-10-07 23:19:00,,0836.7,5.01,0.00,27.1,25.6,00.0,35.9,29.0,22.4,-001.8,0013.44,0008.24,0007.54
2022-10-07 23:20:00,,0836.7,5.00,0.00,27.1,25.6,00.0,35.9,29.0,22.2,-001.5,0013.32,0008.21,0007.52
2022-10-07 23:21:00,,0836.7,4.99,0.00,27.1,25.6,00.0,35.9,28.9,22.1,-001.3,0013.07,0008.15,0007.50
2022-10-07 23:22:00,,0836.7,5.00,0.00,27.1,25.5,00.0,35.9,28.9,22.0,-001.4,0013.18,0008.12,0007.49
2022-10-07 23:23:00,,0836.7,5.01,0.00,27.1,25.5,00.0,35.9,28.9,22.2,-001.6,0013.46,0008.13,0007.48
2022-10-07 23:24:00,,0836.7,4.99,0.00,27.1,25.5,00.0,35.9,28.9,22.2,-001.4,0013.22,0008.15,0007.48
2022-10-07 23:25:00,,0836.7,5.00,0.00,27.0,25.5,00.0,35.8,28.9,22.1,-001.2,0013.19,0008.13,0007.50
2022-10-07 23:26:00,,0836.7,5.02,0.00,27.0,25.5,00.0,35.8,28.9,22.2,-001.4,0013.06,0008.16,0007.53
2022-10-07 23:27:00,,0836.7,5.00,0.00,27.0,25.5,00.0,35.8,28.9,22.0,-001.4,0012.90,0008.20,0007.54
2022-10-07 23:28:00,,0836.7,4.99,0.00,27.0,25.4,00.0,35.8,28.9,21.9,-001.1,0012.50,0008.20,0007.54
2022-10-07 23:29:00,,0836.7,5.01,0.00,27.0,25.4,00.0,35.8,28.9,22.0,-001.2,0012.21,0008.19,0007.53
2022-10-07 23:30:00,,0836.7,5.00,0.00,27.0,25.3,00.0,35.8,28.8,22.2,-001.1,0012.22,0008.14,0007.52
2022-10-07 23:31:00,,0836.7,4.99,0.00,27.0,25.3,00.0,35.8,28.8,22.3,-001.5,0013.11,0008.16,0007.52
2022-10-07 23:32:00,,0836.6,5.01,0.00,27.0,25.2,00.0,35.8,28.8,22.7,-001.7,0013.79,0008.21,0007.54
2022-10-07 23:33:00,,0836.6,4.99,0.00,26.9,25.2,00.0,35.8,28.8,22.8,-001.7,0013.69,0008.20,0007.55
2022-10-07 23:34:00,,0836.6,5.01,0.00,26.9,25.3,00.0,35.8,28.8,22.5,-001.6,0013.37,0008.17,0007.57
2022-10-07 23:35:00,,0836.6,4.98,0.00,26.9,25.2,00.0,35.8,28.8,22.3,-001.8,0013.52,0008.22,0007.59
2022-10-07 23:36:00,,0836.6,5.01,0.00,26.9,25.2,00.0,35.8,28.7,22.4,-001.9,0013.48,0008.19,0007.57
2022-10-07 23:37:00,,0836.6,4.99,0.00,26.9,25.2,00.0,35.7,28.7,22.4,-001.8,0014.17,0008.14,0007.54
2022-10-07 23:38:00,,0836.7,5.01,0.00,26.9,25.2,00.0,35.7,28.7,22.6,-001.4,0013.96,0008.07,0007.50
2022-10-07 23:39:00,,0836.6,4.99,0.00,26.9,25.2,00.0,35.7,28.7,22.5,-001.2,0013.92,0008.07,0007.50
2022-10-07 23:40:00,,0836.6,4.99,0.00,26.9,25.2,00.0,35.7,28.7,22.3,-001.1,0014.00,0008.09,0007.48
2022-10-07 23:41:00,,0836.6,5.00,0.00,26.8,25.2,00.0,35.7,28.7,22.4,-000.9,0013.71,0008.10,0007.48
2022-10-07 23:42:00,,0836.6,5.00,0.00,26.8,25.3,00.0,35.7,28.7,22.4,-000.7,0013.16,0008.13,0007.48
2022-10-07 23:43:00,,0836.6,5.01,0.00,26.9,25.3,00.0,35.7,28.7,22.4,-000.8,0013.39,0008.12,0007.47
2022-10-07 23:44:00,,0836.6,4.98,0.00,26.8,25.3,00.0,35.7,28.7,22.4,-000.6,0013.50,0008.09,0007.44
2022-10-07 23:45:00,,0836.6,5.00,0.00,26.9,25.4,00.0,35.7,28.7,22.3,-000.6,0013.54,0008.08,0007.40
2022-10-07 23:46:00,,0836.6,5.02,0.00,26.9,25.4,00.0,35.7,28.7,22.2,-000.8,0013.47,0008.04,0007.36
2022-10-07 23:47:00,,0836.6,4.99,0.00,26.9,25.3,00.0,35.7,28.7,22.2,-000.8,0013.48,0008.06,0007.35
2022-10-07 23:48:00,,0836.5,4.99,0.00,26.9,25.3,00.0,35.6,28.7,22.4,-000.9,0012.78,0008.10,0007.38
2022-10-07 23:49:00,,0836.5,4.99,0.00,26.9,25.4,00.0,35.6,28.7,22.5,-001.0,0012.83,0008.12,0007.37
2022-10-07 23:50:00,,0836.5,5.00,0.00,26.9,25.4,00.0,35.6,28.7,22.4,-001.0,0012.79,0008.09,0007.37
2022-10-07 23:51:00,,0836.5,4.99,0.00,26.8,25.3,00.0,35.6,28.7,22.3,-001.1,0012.73,0008.09,0007.39
2022-10-07 23:52:00,,0836.5,5.01,0.00,26.8,25.3,00.0,35.6,28.7,22.3,-001.3,0012.70,0008.07,0007.40
2022-10-07 23:53:00,,0836.5,5.00,0.00,26.8,25.2,00.0,35.6,28.7,22.4,-001.3,0012.55,0008.04,0007.39
2022-10-07 23:54:00,,0836.5,4.99,0.00,26.8,25.2,00.0,35.6,28.7,22.4,-001.2,0011.73,0008.04,0007.38
2022-10-07 23:55:00,,0836.5,5.01,0.00,26.8,25.1,00.0,35.6,28.7,22.6,-001.2,0011.44,0008.06,0007.39
2022-10-07 23:56:00,,0836.5,5.01,0.00,26.8,25.1,00.0,35.6,28.7,22.7,-001.3,0011.48,0008.05,0007.40
2022-10-07 23:57:00,,0836.5,4.99,0.00,26.8,25.2,00.0,35.6,28.7,22.7,-001.4,0011.36,0008.06,0007.41
2022-10-07 23:58:00,,0836.6,5.00,0.00,26.8,25.1,00.0,35.6,28.6,22.6,-001.5,0011.34,0008.04,0007.41
2022-10-07 23:59:00,,0836.6,5.01,0.00,26.8,25.1,00.0,35.6,28.6,22.5,-001.4,0011.35,0008.02,0007.40
